This is the latest recevied weather packets stored in our database for station/object F4GMT-11. If no packets are shown the sender has not sent any weather packets the latest 10 day(s).
| Time | Temp. | Humidity | Pressure | Rain* | Wind** | Luminosity | Snow |
|---|---|---|---|---|---|---|---|
| 1777563416 | 23.89° C | 54% | 1016.8 hPa | - | - | - | - |
| 1777555015 | 22.78° C | 58% | 1016.4 hPa | - | - | - | - |
| 1777551415 | 22.22° C | 59% | 1016.3 hPa | - | - | - | - |
| 1777549015 | 21.67° C | 60% | 1016.4 hPa | - | - | - | - |
| 1777543015 | 20.56° C | 62% | 1016 hPa | - | - | - | - |
| 1777541815 | 20° C | 62% | 1015.9 hPa | - | - | - | - |
| 1777539415 | 18.89° C | 62% | 1015.4 hPa | - | - | - | - |
| 1777538215 | 18.89° C | 62% | 1015.4 hPa | - | - | - | - |
| 1777537015 | 18.33° C | 62% | 1015.6 hPa | - | - | - | - |
| 1777535815 | 18.33° C | 61% | 1015.1 hPa | - | - | - | - |
| 1777534615 | 17.78° C | 61% | 1014.6 hPa | - | - | - | - |
| 1777533415 | 17.78° C | 60% | 1014.4 hPa | - | - | - | - |
| 1777529815 | 17.78° C | 59% | 1014.1 hPa | - | - | - | - |
| 1777528615 | 17.78° C | 59% | 1013.7 hPa | - | - | - | - |
| 1777526215 | 17.78° C | 59% | 1013.9 hPa | - | - | - | - |
| 1777525015 | 17.78° C | 58% | 1013.5 hPa | - | - | - | - |
| 1777523815 | 17.78° C | 59% | 1013 hPa | - | - | - | - |
| 1777522615 | 17.78° C | 58% | 1012.5 hPa | - | - | - | - |
| 1777521414 | 18.33° C | 58% | 1012.1 hPa | - | - | - | - |
| 1777520214 | 18.33° C | 58% | 1012 hPa | - | - | - | - |
| 1777519015 | 18.33° C | 59% | 1012.1 hPa | - | - | - | - |
| 1777517814 | 18.89° C | 58% | 1012.2 hPa | - | - | - | - |
| 1777516615 | 18.33° C | 59% | 1012.3 hPa | - | - | - | - |
| 1777515414 | 18.33° C | 58% | 1012.2 hPa | - | - | - | - |
| 1777514214 | 18.89° C | 58% | 1012.1 hPa | - | - | - | - |
* Rain since midnight (hover to see other rain measurements)
** Current wind speed in m/s (hover to see current wind gust speed)